Location: Gwatt
(46.7204°N, 7.6223°E)
Time: 06:22:15
(UTC+00:00)

SR - Visible Passes

Search period start: 28 January 2021 00:00
Search period end: 07 February 2021 00:00
Orbit: 575 x 880 km, 66.7° (Epoch: 27 January)

Date Brightness Start Highest point End Pass type
(mag) Time Alt. Az. Time Alt. Az. Time Alt. Az.
28 Jan ? 03:57:10 27° NNE 03:57:10 27° NNE 03:59:42 10° NNE visible
28 Jan ? 05:36:35 15° NW 05:37:48 16° NNW 05:41:04 10° N visible
29 Jan ? 03:08:52 16° NE 03:08:52 16° NE 03:09:56 10° NE visible
29 Jan ? 04:48:16 22° NNW 04:48:16 22° NNW 04:51:39 10° NNE visible
30 Jan ? 03:59:56 21° N 03:59:56 21° N 04:02:07 10° NNE visible
30 Jan ? 05:39:20 11° NW 05:41:01 12° NNW 05:43:12 10° N visible
31 Jan ? 03:11:33 15° NNE 03:11:33 15° NNE 03:12:29 10° NNE visible
31 Jan ? 04:50:57 16° NNW 04:50:57 16° NNW 04:53:54 10° N visible
01 Feb ? 04:02:32 18° N 04:02:32 18° N 04:04:28 10° NNE visible
01 Feb ? 05:43:51 10° NNW 05:44:21 10° N 05:44:51 10° N visible
02 Feb ? 03:14:05 14° NNE 03:14:05 14° NNE 03:14:55 10° NNE visible
02 Feb ? 04:53:29 13° NNW 04:53:41 13° NNW 04:56:04 10° N visible
03 Feb ? 04:05:01 15° N 04:05:01 15° N 04:06:44 10° NNE visible
04 Feb ? 03:16:32 13° NNE 03:16:32 13° NNE 03:17:16 10° NNE visible
04 Feb ? 04:56:03 10° NNW 04:57:00 10° NNW 04:57:58 10° N visible
05 Feb ? 04:07:25 12° N 04:07:25 12° N 04:08:55 10° N visible
06 Feb ? 03:18:53 12° N 03:18:53 12° N 03:19:33 10° NNE visible
